Regional Weather Roundup
Issued by NWS

Home | Current Version | Previous Version | Text Only | Print | Product List | Glossary Off
Versions: 1 2 3 4 5 6 7 8 9 10 11 12 13 14 15 16 17 18 19 20 21 22 23 24 25 26 27 28 29 30 31 32 33 34 35 36 37 38 39 40 41 42 43 44 45 46 47 48 49 50

000
ASUS43 KDTX 171901
RWRMI
MICHIGAN HOURLY REGIONAL WEATHER ROUNDUP
NATIONAL WEATHER SERVICE DETROIT/PONTIAC MI
200 PM EST WED DEC 17 2014

NOTE: "FAIR" INDICATES FEW OR NO CLOUDS BELOW 12,000 FEET WITH NO
SIGNIFICANT WEATHER AND/OR OBSTRUCTION TO VISIBILITY.

MIZ047>049-052>055-059>063-066>070-074>076-081>083-172000-
SOUTHEAST LOWER MICHIGAN

CITY           SKY/WX    TMP DP  RH WIND       PRES   REMARKS
ADRIAN         CLOUDY    29  22  75 W15G23    30.11S WCI  18
ALMA           CLOUDY    29  24  80 W14       30.06S WCI  18
ANN ARBOR      CLOUDY    31  21  66 NW16G24   30.07S WCI  20
BAD AXE        CLOUDY    31  28  88 W17G23    29.97S WCI  20
CARO           CLOUDY    32  25  77 W13G21    30.00S WCI  22
DETROIT CITY   CLOUDY    33  21  61 W14       30.06S WCI  23
DETROIT        CLOUDY    32  21  64 W20G25    30.07F WCI  20
FLINT          CLOUDY    31  20  63 W24G30    30.05F WCI  17
GROSSE ILE     CLOUDY    34  23  64 W9G22     30.06F WCI  26
HILLSDALE      CLOUDY    28  23  80 W18G25    30.09S WCI  15
HOWELL         CLOUDY    29  21  71 W14G23    30.05S WCI  19

CITY           SKY/WX    TMP DP  RH WIND       PRES   REMARKS
JACKSON        CLOUDY    29  22  75 W13G20    30.08S WCI  19
LAMBERTVILLE   CLOUDY    32  25  74 W14G22    30.11S WCI  22
LANSING        CLOUDY    29  20  69 W15G24    30.08S WCI  18
LAPEER         CLOUDY    30  22  73 W14G22    30.03R WCI  20
MASON          CLOUDY    29  22  74 W14       30.07S WCI  18
MONROE         CLOUDY    32  25  74 W20G25    30.08S WCI  20
MT. CLEMENS    CLOUDY    31  23  72 W22G28    30.02S WCI  18
PONTIAC        CLOUDY    29  19  66 W25       30.03F WCI  14
PORT HOPE        N/A     32  26  78 W10G20    29.94R WCI  24
PORT HURON     CLOUDY    32  25  74 W9G21     30.02R WCI  24
TRI CITIES     CLOUDY    32  23  69 W23       30.03S WCI  19
TROY           CLOUDY    33  22  64 W15G23    30.07S WCI  23
SAGINAW HB     CLOUDY    32  27  80 W18G24    30.02S WCI  20
$$
MIZ043>046-050>051-056>058-064>065-071>073-077>080-172000-
SOUTHWEST LOWER MICHIGAN

CITY           SKY/WX    TMP DP  RH WIND       PRES   REMARKS
BATTLE CREEK   CLOUDY    30  21  69 W10G25    30.10F WCI  21
BENTON HARBOR  CLOUDY    28  20  71 W13G23    30.17F WCI  17
BIG RAPIDS     CLOUDY    28  25  89 W9G17     30.04F WCI  19
COLDWATER      CLOUDY    28  22  76 W13G20    30.12F WCI  18
FREMONT        CLOUDY    28  20  72 W12       30.10S WCI  17
HOLLAND        CLOUDY    31  20  63 W13       30.14S WCI  21
GRAND RAPIDS   FLURRIES  29  21  72 W20       30.10S WCI  16
IONIA          LGT SNOW  29  24  79 W14       30.07F WCI  18
KALAMAZOO      CLOUDY    29  21  72 NW17G25   30.13S WCI  17
LUDINGTON      CLOUDY    28  20  71 NW10G18   30.11S WCI  19
MARSHALL       CLOUDY    28  22  76 W16       30.09F WCI  17
MOUNT PLEASANT CLOUDY    30  24  79 W15       30.03S WCI  19
MUSKEGON       FLURRIES  29  19  66 NW16G26   30.13S WCI  17
SOUTH HAVEN    CLOUDY    30  22  70 NW13G20   30.16F WCI  20
$$
MIZ016>042-172000-
NORTHERN LOWER MICHIGAN

CITY           SKY/WX    TMP DP  RH WIND       PRES   REMARKS
ALPENA         LGT SNOW  30  27  88 NW7       29.93S FOG     WCI  23
BEAVER ISLAND  CLOUDY    28  23  79 NW12G20   29.99S WCI  18
BELLAIRE       LGT SNOW  31  27  86 W7G18     30.00S WCI  24
CADILLAC       LGT SNOW  26  22  85 W10G16    29.99S WCI  16
CHARLEVOIX     CLOUDY    29  26  88 NW16G23   30.01F WCI  17
FRANKFORT      LGT SNOW  27  24  88 NW12G24   30.07S WCI  17
GAYLORD        LGT SNOW  27  24  89 NW9       29.93S FOG     WCI  18
GRAYLING       FLURRIES  28  25  89 CALM      29.96S
HARBOR SPRINGS CLOUDY    28  24  84 W8        29.97S WCI  20
HOUGHTON LAKE  LGT SNOW  27  23  85 W17G23    29.97S FOG     WCI  14
MANISTEE       CLOUDY    27  18  69 NW14      30.08S WCI  15
OSCODA         CLOUDY    33  27  81 W12G21    29.93S WCI  24
PELLSTON       CLOUDY    27  23  85 NW10      29.97S WCI  17
ROGERS CITY    LGT SNOW  29  28  97 NW7       29.94S WCI  21
TRAVERSE CITY  LGT SNOW  29  25  85 W14       30.02S FOG     WCI  18
$$
MIZ007>008-015-172000-
EASTERN UPPER MICHIGAN

CITY           SKY/WX    TMP DP  RH WIND       PRES   REMARKS
KINROSS        CLOUDY    25  23  93 N9        29.95S VSB 1   WCI  15
MACKINAC ISLAN LGT SNOW  27  26  98 N5        29.96R WCI  21
NEWBERRY       CLOUDY    24  22  92 N10       29.98R WCI  13
S. S. MARIE    LGT SNOW  24  18  77 N7        29.93F WCI  16
$$
MIZ004>006-011>014-085-172000-
CENTRAL UPPER MICHIGAN

CITY           SKY/WX    TMP DP  RH WIND       PRES   REMARKS
MANISTIQUE     CLOUDY    28  25  90 NW9       30.01S WCI  19
ESCANABA       CLOUDY    27  21  80 NW10      30.05R WCI  17
MENOMINEE      PTSUNNY   25  18  74 NW10G17   30.10F WCI  15
SAWYER-GWINN   CLOUDY    27  23  86 N20       30.04R WCI  13
$$
MIZ001>003-009>011-084-172000-
WESTERN UPPER MICHIGAN

CITY           SKY/WX    TMP DP  RH WIND       PRES   REMARKS
IRON MOUNTAIN  MIX PCPN  25  18  74 NW18G26   30.07S WCI  11
HOUGHTON       LGT SNOW  23  18  81 N15G22    30.13R WCI  10
COPPER HARBOR    N/A     27  22  81 NE21G29   30.14S WCI  13
IRONWOOD       CLOUDY    19  18  93 W8        30.16S WCI   9
$$

ABBREVIATIONS USED IN REMARKS
   TC - TEMPERATURE IN CELSIUS
  WCI - WIND CHILL INDEX
   HX - HEAT INDEX
  VSB - VISIBILITY



USA.gov is the U.S. government's official web portal to all federal, state and local government web resources and services.